Home   Weather   Kosti   Past weeks
Flag for Sudan

Past Weather in Kosti, Sudan — Yesterday and Last 2 Weeks

Now
86 °F

Clear.


Feels Like: 87 °F
Forecast: 97 / 80 °F
Wind: 12 mph from South

Location: Khartoum Airport

Current Time: Jul 24, 2019 at 2:44:18 am

Latest Report: Jul 24, 2019 at 2:00 am


Visibility: 10 mi

Pressure: 29.80 "Hg

Humidity: 49%

Dew Point: 64 °F

Location of KostiLocation

Past Weather in Kosti — Graph

°F

Kosti Temperature Yesterday

Maximum temperature yesterday: 102 °F (at 3:00 pm)
Minimum temperature yesterday: 79 °F (at 6:00 am)
Average temperature yesterday: 90 °F

High & Low Weather Summary for the Past Weeks

 TemperatureHumidityPressure
High109 °F (Jul 10, 12:30 pm)89% (Jul 16, 11:30 pm)29.98 "Hg (Jul 16, 11:30 pm)
Low73 °F (Jul 20, 6:00 am)8% (Jul 10, 4:00 pm)29.65 "Hg (Jul 10, 3:00 pm)
Average90 °F42%29.84 "Hg
* Reported Jul 9 1:00 am — Jul 24 1:00 am, Kosti. Weather by CustomWeather, © 2019

Note: Actual official high and low records may vary slightly from our data, if they occured in-between our weather recording intervals... More about our weather records

Advertising

Kosti Weather History for the Previous 24 Hours

Scroll right to see more
 ConditionsComfort  
Time TempWeatherWind HumidityBarometerVisibility
1:00 am
Wed, Jul 24
86 °FClear.13 mph49%29.80 "Hg10 mi
12:30 am88 °FClear.14 mph43%29.80 "Hg10 mi
12:00 am88 °FClear.16 mph43%29.80 "Hg10 mi
11:30 pm
Tue, Jul 23
88 °FClear.15 mph43%29.83 "Hg10 mi
11:00 pm90 °FClear.14 mph41%29.83 "Hg10 mi
10:30 pm90 °FClear.13 mph38%29.83 "Hg10 mi
10:00 pm93 °FClear.13 mph32%29.83 "Hg10 mi
9:30 pm93 °FClear.15 mph32%29.80 "Hg10 mi
9:00 pm93 °FClear.10 mph32%29.80 "Hg10 mi
8:30 pm95 °FClear.8 mph30%29.80 "Hg10 mi
8:00 pm95 °FClear.7 mph28%29.77 "Hg10 mi
7:30 pm97 °FClear.5 mph25%29.77 "Hg10 mi
7:00 pm99 °FClear.3 mph24%29.77 "Hg10 mi
6:30 pm99 °FClear.5 mph21%29.77 "Hg10 mi
6:00 pm100 °FSunny.6 mph18%29.77 "Hg10 mi
5:30 pm100 °FSunny.9 mph22%29.74 "Hg10 mi
5:00 pm100 °FSunny.16 mph22%29.74 "Hg10 mi
4:00 pm102 °FSunny.9 mph23%29.74 "Hg10 mi
3:30 pm102 °FSunny.13 mph23%29.77 "Hg10 mi
3:00 pm102 °FSunny.17 mph23%29.77 "Hg10 mi
2:30 pm100 °FSunny.12 mph24%29.77 "Hg10 mi
2:00 pm100 °FSunny.12 mph25%29.77 "Hg10 mi
1:30 pm99 °FSunny.10 mph27%29.80 "Hg10 mi
1:00 pm97 °FSunny.12 mph27%29.80 "Hg10 mi
12:30 pm95 °FSunny.17 mph30%29.83 "Hg10 mi
12:00 pm95 °FSunny.14 mph30%29.83 "Hg10 mi
11:30 am93 °FSunny.17 mph36%29.83 "Hg10 mi
11:00 am93 °FSunny.14 mph36%29.83 "Hg10 mi
10:30 am90 °FSunny.12 mph43%29.86 "Hg10 mi
10:00 am90 °FSunny.14 mph43%29.86 "Hg10 mi
9:30 am86 °FSunny.12 mph49%29.86 "Hg10 mi
9:00 am86 °FSunny.16 mph49%29.86 "Hg10 mi
8:30 am86 °FSunny.9 mph52%29.86 "Hg10 mi
8:00 am84 °FSunny.14 mph55%29.86 "Hg10 mi
7:30 am82 °FSunny.13 mph58%29.86 "Hg10 mi
7:00 am81 °FSunny.9 mph58%29.86 "Hg10 mi
6:30 am81 °FSunny.12 mph62%29.86 "Hg10 mi
6:00 am79 °FSunny.9 mph58%29.83 "Hg10 mi
5:00 am81 °FClear.12 mph62%29.83 "Hg10 mi
4:30 am81 °FClear.10 mph70%29.83 "Hg10 mi
4:00 am82 °FClear.14 mph62%29.80 "Hg10 mi
3:30 am82 °FClear.16 mph62%29.80 "Hg10 mi
3:00 am82 °FClear.10 mph58%29.77 "Hg10 mi
2:30 am82 °FClear.14 mph58%29.80 "Hg10 mi
2:00 am82 °FClear.16 mph58%29.80 "Hg10 mi
Weather by CustomWeather, © 2019

See weather overview